Home   Weather   Melle   Past weeks

Flag for Germany Past Weather in Melle, Lower Saxony, Germany — Yesterday and Last 2 Weeks

50 °F

Passing clouds.

Feels Like: 48 °F
Forecast: 40 / 49 °F
Wind: 5 mph from North

Location: Muenster / Osnabrueck

Current Time: Oct 23, 2016 at 4:28:13 PM

Latest Report: Oct 23, 2016 at 3:50 PM

Visibility: N/A

Pressure: 29.92 "Hg

Humidity: 82%

Dew Point: 45 °F

Location of MelleLocation

Past Weather in Melle — Graph


Melle Temperature Yesterday

Maximum temperature yesterday: 48 °F (at 1:20 PM)
Minimum temperature yesterday: 36 °F (at 11:50 PM)
Average temperature yesterday: 45 °F

High & Low Weather Summary for the Past Weeks

High64 °F (Oct 16, 2:50 PM)100% (Oct 9, 5:20 AM)30.30 "Hg (Oct 9, 5:20 AM)
Low32 °F (Oct 11, 2:50 AM)51% (Oct 8, 4:50 PM)29.68 "Hg (Oct 15, 1:20 AM)
Average47 °F88%30.04 "Hg
* Reported Oct 8 3:20 PM — Oct 23 3:20 PM, Melle, Weather by CustomWeather, © 2016

Note: Actual official high and low records may vary slightly from our data, if they occured in-between our weather recording intervals... More about our weather records


Melle Weather History for the Previous 24 Hours

Scroll right to see more
Time TempWeatherWind HumidityBarometerVisibility
3:20 PM
Sun, Oct 23
50 °FPassing clouds.3 mph82%29.92 "HgN/A
2:50 PM48 °FPassing clouds.3 mph94%29.92 "HgN/A
2:20 PM46 °FPassing clouds.3 mph93%29.92 "HgN/A
1:50 PM45 °FPassing clouds.3 mph100%29.95 "HgN/A
1:20 PM45 °FScattered clouds.3 mph93%29.95 "Hg6 mi
12:50 PM43 °FPartly sunny.3 mph93%29.95 "Hg4 mi
12:20 PM41 °FFog.5 mph100%29.95 "Hg2 mi
11:50 AM39 °FFog.3 mph100%29.95 "Hg0 mi
11:20 AM39 °FFog.2 mph100%29.95 "Hg0 mi
10:50 AM37 °FFog.2 mph100%29.98 "Hg0 mi
10:20 AM37 °FFog.3 mph93%29.98 "Hg0 mi
9:50 AM36 °FFog.3 mph100%29.95 "Hg0 mi
9:20 AM36 °FFog.3 mph100%29.95 "Hg0 mi
8:50 AM36 °FFog.2 mph93%29.95 "Hg0 mi
8:20 AM34 °FFog.2 mph100%29.95 "Hg0 mi
7:50 AM34 °FFog.2 mph100%29.95 "Hg0 mi
7:20 AM34 °FFog.3 mph100%29.95 "Hg0 mi
6:50 AM34 °FFog.1 mph100%29.95 "Hg0 mi
6:20 AM34 °FFog.1 mph100%29.95 "Hg0 mi
5:50 AM34 °FFog.1 mph100%29.95 "Hg0 mi
5:20 AM34 °FFog.1 mph100%29.95 "Hg0 mi
4:50 AM34 °FFog.2 mph100%29.95 "Hg0 mi
4:20 AM34 °FFog.2 mph100%29.95 "Hg0 mi
3:50 AM34 °FFog.1 mph100%29.95 "Hg0 mi
3:20 AM34 °FFog.2 mph100%29.98 "Hg1 mi
2:50 AM34 °FFog.2 mph100%29.98 "Hg1 mi
2:20 AM34 °FFog.No wind100%29.98 "Hg1 mi
1:50 AM34 °FFog.No wind100%29.98 "Hg1 mi
1:20 AM34 °FFog.3 mph100%29.98 "Hg1 mi
12:50 AM36 °FFog.1 mph100%29.98 "Hg1 mi
12:20 AM36 °FFog.No wind93%29.98 "Hg1 mi
11:50 PM
Sat, Oct 22
36 °FFog.No wind100%29.98 "Hg0 mi
11:20 PM37 °FFog.No wind93%29.98 "Hg0 mi
10:50 PM39 °FFog.2 mph100%29.98 "Hg1 mi
10:20 PM39 °FFog.2 mph93%29.98 "Hg1 mi
9:50 PM41 °FQuite cool.1 mph93%29.98 "Hg3 mi
9:20 PM43 °FFog.5 mph93%29.98 "Hg3 mi
8:50 PM43 °FFog.No wind93%29.98 "Hg3 mi
8:20 PM43 °FFog.No wind100%29.98 "Hg4 mi
7:50 PM45 °FClear.No wind93%29.98 "Hg5 mi
7:20 PM45 °FFog.No wind93%29.98 "Hg5 mi
6:50 PM45 °FFog.2 mph93%29.98 "Hg6 mi
6:20 PM45 °FPassing clouds.No wind93%29.95 "Hg6 mi
5:50 PM46 °FPartly sunny.2 mph87%29.95 "HgN/A
5:20 PM46 °FPartly sunny.3 mph87%29.95 "HgN/A
4:50 PM46 °FBroken clouds.3 mph87%29.95 "Hg6 mi
4:20 PM46 °FLight rain. Partly sunny.5 mph87%29.95 "Hg5 mi
Weather by CustomWeather, © 2016

See weather overviewHow to use our weather pages